| time (UTC) | temp F | wind direction | speed MPH | gust MPH | rain 1hr in | rain 24hr in | rain mn in | humidity % | barometer mb |
| 20260906094954 | 55 | 286 | 5.0 | 7.0 | 0.00 | 0.00 | 0.00 | 69 | 1005.2 |
| 20260906094252 | 55 | 277 | 3.0 | 7.0 | 0.00 | 0.00 | 0.00 | 72 | 1005.0 |
| 20260906093550 | 55 | 263 | 3.0 | 3.0 | 0.00 | 0.00 | 0.00 | 72 | 1005.1 |
| 20260906092848 | 54 | 288 | 2.0 | 5.0 | 0.00 | 0.00 | 0.00 | 73 | 1005.1 |
| 20260906092146 | 53 | 323 | 2.0 | 5.0 | 0.00 | 0.00 | 0.00 | 74 | 1005.1 |
| 20260906091454 | 52 | 273 | 2.0 | 5.0 | 0.00 | 0.00 | 0.00 | 75 | 1005.0 |
| 20260906090752 | 52 | 251 | 6.0 | 12.0 | 0.00 | 0.00 | 0.00 | 76 | 1004.9 |
| 20260906090051 | 53 | 248 | 3.0 | 8.0 | 0.00 | 0.00 | 0.00 | 76 | 1004.8 |
| 20260906085348 | 52 | 269 | 2.0 | 5.0 | 0.00 | 0.00 | 0.00 | 76 | 1004.7 |
| 20260906084657 | 53 | 262 | 3.0 | 6.0 | 0.00 | 0.00 | 0.00 | 76 | 1004.6 |
| 20260906083955 | 53 | 250 | 3.0 | 8.0 | 0.00 | 0.00 | 0.00 | 75 | 1004.5 |
| 20260906083254 | 53 | 260 | 5.0 | 6.0 | 0.00 | 0.00 | 0.00 | 73 | 1004.3 |
| 20260906082551 | 54 | 269 | 3.0 | 5.0 | 0.00 | 0.00 | 0.00 | 72 | 1004.3 |
| 20260906081848 | 55 | 270 | 6.0 | 8.0 | 0.00 | 0.00 | 0.00 | 71 | 1004.2 |
| 20260906081146 | 55 | 277 | 2.0 | 7.0 | 0.00 | 0.00 | 0.00 | 72 | 1004.1 |
| 20260906080455 | 54 | 257 | 3.0 | 5.0 | 0.00 | 0.00 | 0.00 | 74 | 1004.1 |
| 20260906075752 | 54 | 261 | 1.0 | 6.0 | 0.00 | 0.00 | 0.00 | 74 | 1004.0 |
| 20260906075051 | 54 | 248 | 3.0 | 2.0 | 0.00 | 0.00 | 0.00 | 74 | 1003.9 |
| 20260906074348 | 53 | 254 | 3.0 | 7.0 | 0.00 | 0.00 | 0.00 | 75 | 1003.8 |
| 20260906073646 | 52 | 312 | 3.0 | 6.0 | 0.00 | 0.00 | 0.00 | 75 | 1003.7 |
| 20260906072954 | 53 | 318 | 5.0 | 10.0 | 0.00 | 0.00 | 0.00 | 75 | 1003.5 |
| 20260906072253 | 53 | 248 | 3.0 | 12.0 | 0.00 | 0.00 | 0.00 | 76 | 1003.4 |
| 20260906071551 | 52 | 248 | 5.0 | 6.0 | 0.00 | 0.00 | 0.00 | 76 | 1003.4 |
| 20260906070848 | 51 | 255 | 3.0 | 6.0 | 0.00 | 0.00 | 0.00 | 76 | 1003.3 |
| 20260906070146 | 51 | 248 | 7.0 | 6.0 | 0.00 | 0.00 | 0.00 | 78 | 1003.2 |
| 20260906065456 | 51 | 265 | 6.0 | 6.0 | 0.00 | 0.00 | 0.00 | 79 | 1003.1 |
| 20260906064755 | 51 | 248 | 2.0 | 3.0 | 0.00 | 0.00 | 0.00 | 78 | 1003.1 |
| 20260906064053 | 50 | 249 | 2.0 | 16.0 | 0.00 | 0.00 | 0.00 | 80 | 1003.2 |
| 20260906063352 | 50 | 248 | 3.0 | 3.0 | 0.00 | 0.00 | 0.00 | 80 | 1003.2 |
| 20260906062650 | 50 | 254 | 8.0 | 13.0 | 0.00 | 0.00 | 0.00 | 82 | 1003.1 |
| 20260906061948 | 49 | 248 | 5.0 | 8.0 | 0.00 | 0.00 | 0.00 | 83 | 1003.1 |
| 20260906061309 | 49 | 248 | 3.0 | 12.0 | 0.00 | 0.00 | 0.00 | 84 | 1003.0 |
| 20260906060556 | 49 | 248 | 3.0 | 10.0 | 0.00 | 0.00 | 0.00 | 84 | 1003.0 |
| 20260906055855 | 49 | 248 | 3.0 | 3.0 | 0.00 | 0.00 | 0.00 | 83 | 1002.9 |
| 20260906055154 | 49 | 248 | 1.0 | 3.0 | 0.00 | 0.00 | 0.00 | 84 | 1002.8 |
| 20260906054452 | 49 | 248 | 2.0 | 7.0 | 0.00 | 0.00 | 0.00 | 84 | 1002.8 |
| 20260906053748 | 48 | 248 | 3.0 | 6.0 | 0.00 | 0.00 | 0.00 | 84 | 1002.7 |
| 20260906053046 | 48 | 248 | 5.0 | 7.0 | 0.00 | 0.00 | 0.00 | 84 | 1002.6 |
| 20260906052355 | 48 | 248 | 3.0 | 5.0 | 0.00 | 0.00 | 0.00 | 84 | 1002.6 |
| 20260906051652 | 48 | 248 | 6.0 | 7.0 | 0.00 | 0.00 | 0.00 | 84 | 1002.5 |
| 20260906050951 | 48 | 248 | 2.0 | 5.0 | 0.00 | 0.00 | 0.00 | 84 | 1002.5 |
| 20260906050248 | 48 | 248 | 2.0 | 2.0 | 0.00 | 0.00 | 0.00 | 85 | 1002.5 |
| 20260906045546 | 48 | 248 | 3.0 | 9.0 | 0.00 | 0.00 | 0.00 | 85 | 1002.5 |
| 20260906044857 | 48 | 248 | 5.0 | 6.0 | 0.00 | 0.00 | 0.00 | 85 | 1002.5 |
| 20260906044155 | 48 | 248 | 5.0 | 10.0 | 0.00 | 0.00 | 0.00 | 85 | 1002.6 |
| 20260906043453 | 48 | 248 | 3.0 | 2.0 | 0.00 | 0.00 | 0.00 | 85 | 1002.5 |
| 20260906042751 | 48 | 248 | 1.0 | 1.0 | 0.00 | 0.00 | 0.00 | 85 | 1002.4 |
| 20260906042051 | 47 | 248 | 5.0 | 9.0 | 0.00 | 0.00 | 0.00 | 85 | 1002.4 |
| 20260906041348 | 46 | 248 | 2.0 | 3.0 | 0.00 | 0.00 | 0.00 | 85 | 1002.3 |
| 20260906040646 | 46 | 248 | 5.0 | 6.0 | 0.00 | 0.00 | 0.00 | 86 | 1002.1 |
| 20260906035955 | 46 | 248 | 7.0 | 8.0 | 0.00 | 0.00 | 0.00 | 86 | 1002.1 |
| 20260906035255 | 46 | 248 | 5.0 | 8.0 | 0.00 | 0.00 | 0.00 | 86 | 1001.8 |
| 20260906034552 | 47 | 248 | 6.0 | 6.0 | 0.00 | 0.00 | 0.00 | 85 | 1001.8 |
| 20260906033851 | 47 | 248 | 5.0 | 6.0 | 0.00 | 0.00 | 0.00 | 85 | 1001.7 |
| 20260906033148 | 48 | 248 | 3.0 | 6.0 | 0.00 | 0.00 | 0.00 | 85 | 1001.6 |
| 20260906032447 | 48 | 248 | 2.0 | 9.0 | 0.00 | 0.00 | 0.00 | 85 | 1001.6 |
| 20260906031746 | 49 | 248 | 3.0 | 12.0 | 0.00 | 0.00 | 0.00 | 85 | 1001.5 |
| 20260906031056 | 49 | 248 | 5.0 | 7.0 | 0.00 | 0.00 | 0.00 | 85 | 1001.3 |
| 20260906030354 | 49 | 248 | 2.0 | 3.0 | 0.00 | 0.00 | 0.00 | 85 | 1001.3 |
| 20260906025652 | 49 | 248 | 2.0 | 6.0 | 0.00 | 0.00 | 0.00 | 85 | 1001.3 |
| 20260906024950 | 49 | 248 | 6.0 | 6.0 | 0.00 | 0.00 | 0.00 | 85 | 1001.2 |
| 20260906024246 | 49 | 248 | 3.0 | 5.0 | 0.00 | 0.00 | 0.00 | 84 | 1001.0 |
| 20260906023556 | 49 | 248 | 2.0 | 3.0 | 0.00 | 0.00 | 0.00 | 85 | 1000.9 |
| 20260906022854 | 49 | 248 | 3.0 | 5.0 | 0.00 | 0.00 | 0.00 | 85 | 1000.9 |
| 20260906022151 | 49 | 248 | 5.0 | 9.0 | 0.00 | 0.00 | 0.00 | 85 | 1000.8 |
| 20260906021450 | 49 | 248 | 3.0 | 6.0 | 0.00 | 0.00 | 0.00 | 85 | 1000.7 |
| 20260906020747 | 49 | 248 | 2.0 | 3.0 | 0.00 | 0.00 | 0.00 | 85 | 1000.6 |
| 20260906020057 | 49 | 248 | 2.0 | 6.0 | 0.00 | 0.00 | 0.00 | 85 | 1000.6 |
| 20260906015355 | 49 | 248 | 2.0 | 5.0 | 0.00 | 0.00 | 0.00 | 85 | 1000.4 |
| 20260906014652 | 49 | 248 | 3.0 | 5.0 | 0.00 | 0.00 | 0.00 | 85 | 1000.5 |
| 20260906013949 | 49 | 248 | 3.0 | 7.0 | 0.00 | 0.00 | 0.00 | 85 | 1000.5 |
| 20260906013248 | 49 | 248 | 2.0 | 3.0 | 0.00 | 0.00 | 0.00 | 85 | 1000.5 |
| 20260906012547 | 49 | 248 | 2.0 | 2.0 | 0.00 | 0.00 | 0.00 | 85 | 1000.5 |
| 20260906011847 | 49 | 248 | 5.0 | 6.0 | 0.00 | 0.00 | 0.00 | 85 | 1000.1 |
| 20260906011155 | 50 | 248 | 3.0 | 3.0 | 0.00 | 0.00 | 0.00 | 85 | 1000.1 |
| 20260906010453 | 50 | 248 | 1.0 | 1.0 | 0.00 | 0.00 | 0.00 | 85 | 1000.1 |
| 20260906005750 | 50 | 248 | 1.0 | 5.0 | 0.00 | 0.00 | 0.00 | 85 | 1000.0 |
| 20260906005047 | 50 | 248 | 1.0 | 5.0 | 0.00 | 0.00 | 0.00 | 85 | 1000.0 |
| 20260906004357 | 50 | 248 | 2.0 | 6.0 | 0.00 | 0.00 | 0.00 | 85 | 999.9 |
| 20260906003654 | 50 | 248 | 1.0 | 2.0 | 0.00 | 0.00 | 0.00 | 85 | 999.9 |
| 20260906002952 | 50 | 248 | 3.0 | 6.0 | 0.00 | 0.00 | 0.00 | 85 | 999.8 |
| 20260906002250 | 50 | 248 | 1.0 | 3.0 | 0.00 | 0.00 | 0.00 | 85 | 999.7 |
| 20260906001549 | 50 | 248 | 1.0 | 3.0 | 0.00 | 0.00 | 0.00 | 85 | 999.7 |
| 20260906000848 | 50 | 248 | 3.0 | 7.0 | 0.00 | 0.00 | 0.00 | 85 | 999.7 |
| 20260906000156 | 50 | 248 | 3.0 | 7.0 | 0.00 | 0.00 | 0.00 | 85 | 999.7 |
| 20260905235454 | 50 | 248 | 1.0 | 2.0 | 0.00 | 0.00 | 0.00 | 85 | 999.6 |
| 20260905234753 | 50 | 248 | 2.0 | 3.0 | 0.00 | 0.00 | 0.00 | 85 | 999.5 |
| 20260905234050 | 51 | 248 | 2.0 | 1.0 | 0.00 | 0.00 | 0.00 | 85 | 999.4 |
| 20260905233349 | 51 | 248 | 2.0 | 3.0 | 0.00 | 0.00 | 0.00 | 85 | 999.3 |
| 20260905232647 | 51 | 248 | 5.0 | 10.0 | 0.00 | 0.00 | 0.00 | 85 | 999.2 |
| 20260905232009 | 51 | 248 | 3.0 | 9.0 | 0.00 | 0.00 | 0.00 | 85 | 999.2 |
| 20260905231255 | 51 | 248 | 1.0 | 5.0 | 0.00 | 0.00 | 0.00 | 85 | 999.2 |
| 20260905230551 | 51 | 248 | 3.0 | 3.0 | 0.00 | 0.00 | 0.00 | 85 | 999.1 |
| 20260905225850 | 51 | 248 | 2.0 | 3.0 | 0.00 | 0.00 | 0.00 | 84 | 999.0 |
| 20260905225148 | 51 | 248 | 1.0 | 3.0 | 0.00 | 0.00 | 0.00 | 84 | 999.0 |
| 20260905224446 | 51 | 248 | 1.0 | 3.0 | 0.00 | 0.00 | 0.00 | 84 | 998.9 |
| 20260905223756 | 51 | 248 | 2.0 | 2.0 | 0.00 | 0.00 | 0.00 | 84 | 998.9 |
| 20260905223052 | 51 | 248 | 1.0 | 3.0 | 0.00 | 0.00 | 0.00 | 84 | 998.9 |
| 20260905222351 | 51 | 248 | 2.0 | 7.0 | 0.00 | 0.00 | 0.00 | 84 | 998.8 |
| 20260905221648 | 51 | 248 | 3.0 | 5.0 | 0.00 | 0.00 | 0.00 | 84 | 998.8 |
| 20260905220946 | 51 | 248 | 2.0 | 3.0 | 0.00 | 0.00 | 0.00 | 84 | 998.9 |
| 20260905220256 | 51 | 248 | 1.0 | 3.0 | 0.00 | 0.00 | 0.00 | 84 | 998.8 |
| 20260905215553 | 51 | 248 | 3.0 | 3.0 | 0.00 | 0.00 | 0.00 | 84 | 998.8 |
| 20260905214851 | 51 | 248 | 2.0 | 3.0 | 0.00 | 0.00 | 0.00 | 84 | 998.8 |
| 20260905214149 | 51 | 248 | 2.0 | 2.0 | 0.00 | 0.00 | 0.00 | 84 | 998.8 |
| 20260905213447 | 50 | 248 | 0.0 | 1.0 | 0.00 | 0.00 | 0.00 | 84 | 998.7 |
| 20260905212757 | 50 | 248 | 1.0 | 2.0 | 0.00 | 0.00 | 0.00 | 84 | 998.7 |
| 20260905212055 | 50 | 248 | 1.0 | 3.0 | 0.00 | 0.00 | 0.00 | 84 | 998.6 |
| 20260905211353 | 50 | 248 | 0.0 | 2.0 | 0.00 | 0.00 | 0.00 | 84 | 998.5 |
| 20260905210651 | 49 | 248 | 1.0 | 3.0 | 0.00 | 0.00 | 0.00 | 84 | 998.3 |
| 20260905205947 | 49 | 248 | 0.0 | 2.0 | 0.00 | 0.00 | 0.00 | 84 | 998.3 |
| 20260905205257 | 49 | 248 | 0.0 | 0.0 | 0.00 | 0.00 | 0.00 | 84 | 998.2 |
| 20260905204555 | 48 | 248 | 0.0 | 2.0 | 0.00 | 0.00 | 0.00 | 84 | 998.2 |
| 20260905203853 | 48 | 248 | 1.0 | 2.0 | 0.00 | 0.00 | 0.00 | 84 | 998.1 |
| 20260905203151 | 48 | 248 | 2.0 | 3.0 | 0.00 | 0.00 | 0.00 | 84 | 998.0 |
| 20260905202448 | 48 | 248 | 0.0 | 2.0 | 0.00 | 0.00 | 0.00 | 84 | 998.0 |
| 20260905201746 | 49 | 248 | 1.0 | 2.0 | 0.00 | 0.00 | 0.00 | 84 | 998.0 |
| 20260905201054 | 49 | 248 | 0.0 | 1.0 | 0.00 | 0.00 | 0.00 | 84 | 997.9 |
| 20260905200352 | 49 | 248 | 0.0 | 1.0 | 0.00 | 0.00 | 0.00 | 84 | 997.9 |
| 20260905195651 | 49 | 248 | 1.0 | 2.0 | 0.00 | 0.00 | 0.00 | 84 | 997.9 |
| 20260905194950 | 49 | 248 | 0.0 | 0.0 | 0.00 | 0.00 | 0.00 | 84 | 997.8 |
| 20260905194248 | 49 | 248 | 0.0 | 1.0 | 0.00 | 0.00 | 0.00 | 84 | 997.6 |
| 20260905193546 | 49 | 248 | 0.0 | 0.0 | 0.00 | 0.00 | 0.00 | 84 | 997.6 |
| 20260905192855 | 48 | 248 | 0.0 | 0.0 | 0.00 | 0.00 | 0.00 | 84 | 997.6 |
| 20260905192153 | 48 | 248 | 0.0 | 0.0 | 0.00 | 0.00 | 0.00 | 84 | 997.5 |
| 20260905191450 | 49 | 248 | 0.0 | 0.0 | 0.00 | 0.00 | 0.00 | 84 | 997.6 |
| 20260905190748 | 49 | 248 | 0.0 | 0.0 | 0.00 | 0.00 | 0.00 | 84 | 997.5 |
| 20260905190046 | 49 | 248 | 0.0 | 0.0 | 0.00 | 0.00 | 0.00 | 84 | 997.5 |
| 20260905185355 | 49 | 249 | 0.0 | 0.0 | 0.00 | 0.00 | 0.00 | 84 | 997.5 |
| 20260905184652 | 49 | 248 | 0.0 | 0.0 | 0.00 | 0.00 | 0.00 | 84 | 997.4 |
| 20260905183949 | 48 | 248 | 0.0 | 0.0 | 0.00 | 0.00 | 0.00 | 84 | 997.4 |
| 20260905183247 | 48 | 248 | 0.0 | 0.0 | 0.00 | 0.00 | 0.00 | 84 | 997.4 |
| 20260905182557 | 48 | 248 | 0.0 | 0.0 | 0.00 | 0.00 | 0.00 | 84 | 997.4 |
| 20260905181853 | 48 | 250 | 0.0 | 2.0 | 0.00 | 0.00 | 0.00 | 84 | 997.4 |
| 20260905181151 | 49 | 263 | 0.0 | 0.0 | 0.00 | 0.00 | 0.00 | 84 | 997.3 |
| 20260905180448 | 49 | 258 | 0.0 | 0.0 | 0.00 | 0.00 | 0.00 | 84 | 997.3 |
| 20260905175746 | 49 | 260 | 0.0 | 0.0 | 0.00 | 0.00 | 0.00 | 84 | 997.3 |
| 20260905175056 | 50 | 288 | 0.0 | 0.0 | 0.00 | 0.00 | 0.00 | 84 | 997.3 |
| 20260905174352 | 51 | 280 | 0.0 | 0.0 | 0.00 | 0.00 | 0.00 | 85 | 997.2 |
| 20260905173652 | 51 | 264 | 0.0 | 0.0 | 0.00 | 0.00 | 0.00 | 84 | 997.2 |
| 20260905172948 | 52 | 285 | 0.0 | 0.0 | 0.00 | 0.00 | 0.00 | 84 | 997.1 |
| 20260905172246 | 53 | 289 | 0.0 | 1.0 | 0.00 | 0.00 | 0.00 | 84 | 997.1 |
| 20260905171556 | 53 | 278 | 2.0 | 5.0 | 0.00 | 0.00 | 0.00 | 83 | 997.1 |
| 20260905170855 | 53 | 45 | 0.0 | 0.0 | 0.00 | 0.00 | 0.00 | 83 | 996.9 |
| 20260905170153 | 53 | 22 | 0.0 | 0.0 | 0.00 | 0.00 | 0.00 | 82 | 996.9 |
| 20260905165449 | 54 | 272 | 0.0 | 1.0 | 0.00 | 0.00 | 0.00 | 82 | 996.7 |
| 20260905164747 | 55 | 37 | 0.0 | 0.0 | 0.00 | 0.00 | 0.00 | 80 | 996.7 |
| 20260905164057 | 56 | 51 | 0.0 | 0.0 | 0.00 | 0.00 | 0.00 | 80 | 996.5 |
| 20260905163354 | 56 | 59 | 0.0 | 0.0 | 0.00 | 0.00 | 0.00 | 80 | 996.5 |
| 20260905162704 | 56 | 268 | 0.0 | 1.0 | 0.00 | 0.00 | 0.00 | 79 | 996.5 |
| 20260905161949 | 56 | 328 | 1.0 | 2.0 | 0.00 | 0.00 | 0.00 | 78 | 996.4 |
| 20260905161247 | 56 | 62 | 1.0 | 2.0 | 0.00 | 0.00 | 0.00 | 77 | 996.4 |
| 20260905160557 | 57 | 44 | 1.0 | 3.0 | 0.00 | 0.00 | 0.00 | 76 | 996.4 |
| 20260905155854 | 57 | 42 | 0.0 | 1.0 | 0.00 | 0.00 | 0.00 | 76 | 996.3 |
| 20260905155153 | 58 | 200 | 1.0 | 2.0 | 0.00 | 0.00 | 0.00 | 75 | 996.2 |
| 20260905154452 | 58 | 28 | 1.0 | 3.0 | 0.00 | 0.00 | 0.00 | 74 | 996.2 |
| 20260905153749 | 58 | 302 | 2.0 | 2.0 | 0.00 | 0.00 | 0.00 | 74 | 996.1 |
| 20260905153048 | 59 | 44 | 1.0 | 2.0 | 0.00 | 0.00 | 0.00 | 74 | 996.1 |
| 20260905152356 | 59 | 51 | 2.0 | 5.0 | 0.00 | 0.00 | 0.00 | 74 | 996.0 |
| 20260905151654 | 59 | 37 | 1.0 | 5.0 | 0.00 | 0.00 | 0.00 | 74 | 995.9 |
| 20260905150952 | 58 | 38 | 0.0 | 0.0 | 0.00 | 0.00 | 0.00 | 75 | 995.9 |
| 20260905150249 | 58 | 27 | 0.0 | 2.0 | 0.00 | 0.00 | 0.00 | 74 | 995.7 |
| 20260905145548 | 58 | 23 | 0.0 | 5.0 | 0.00 | 0.00 | 0.00 | 72 | 995.8 |
| 20260905144847 | 59 | 86 | 2.0 | 3.0 | 0.00 | 0.00 | 0.00 | 71 | 995.6 |
| 20260905144156 | 60 | 254 | 2.0 | 7.0 | 0.00 | 0.00 | 0.00 | 70 | 995.6 |
| 20260905143454 | 60 | 273 | 2.0 | 3.0 | 0.00 | 0.00 | 0.00 | 70 | 995.5 |
| 20260905142752 | 60 | 298 | 1.0 | 3.0 | 0.00 | 0.00 | 0.00 | 69 | 995.5 |
| 20260905142051 | 61 | 348 | 3.0 | 3.0 | 0.00 | 0.00 | 0.00 | 67 | 995.5 |
| 20260905141350 | 61 | 27 | 2.0 | 2.0 | 0.00 | 0.00 | 0.00 | 66 | 995.4 |
| 20260905140648 | 62 | 352 | 3.0 | 3.0 | 0.00 | 0.00 | 0.00 | 64 | 995.4 |
| 20260905135957 | 62 | 10 | 1.0 | 6.0 | 0.00 | 0.00 | 0.00 | 65 | 995.4 |
| 20260905135254 | 63 | 19 | 2.0 | 5.0 | 0.00 | 0.00 | 0.00 | 65 | 995.2 |
| 20260905134552 | 62 | 22 | 0.0 | 1.0 | 0.00 | 0.00 | 0.00 | 65 | 995.2 |
| 20260905133849 | 62 | 22 | 2.0 | 2.0 | 0.00 | 0.00 | 0.00 | 64 | 995.2 |
| 20260905133147 | 62 | 357 | 1.0 | 2.0 | 0.00 | 0.00 | 0.00 | 63 | 995.2 |
| 20260905132456 | 63 | 20 | 3.0 | 7.0 | 0.00 | 0.00 | 0.00 | 61 | 995.2 |
| 20260905131753 | 65 | 358 | 2.0 | 2.0 | 0.00 | 0.00 | 0.00 | 60 | 995.2 |
| 20260905131051 | 65 | 22 | 1.0 | 2.0 | 0.00 | 0.00 | 0.00 | 59 | 995.1 |
| 20260905130348 | 65 | 13 | 1.0 | 6.0 | 0.00 | 0.00 | 0.00 | 60 | 995.1 |
| 20260905125657 | 65 | 277 | 2.0 | 5.0 | 0.00 | 0.00 | 0.00 | 59 | 995.1 |
| 20260905124956 | 67 | 8 | 3.0 | 3.0 | 0.00 | 0.00 | 0.00 | 55 | 995.1 |
| 20260905124255 | 74 | 253 | 3.0 | 6.0 | 0.00 | 0.00 | 0.00 | 48 | 995.0 |
| 20260905123553 | 80 | 355 | 2.0 | 5.0 | 0.00 | 0.00 | 0.00 | 42 | 994.9 |
| 20260905122851 | 82 | 328 | 1.0 | 5.0 | 0.00 | 0.00 | 0.00 | 44 | 995.0 |
| 20260905122147 | 79 | 15 | 1.0 | 3.0 | 0.00 | 0.00 | 0.00 | 46 | 995.0 |
| 20260905121457 | 80 | 267 | 5.0 | 5.0 | 0.00 | 0.00 | 0.00 | 42 | 994.9 |
| 20260905120754 | 81 | 235 | 3.0 | 5.0 | 0.00 | 0.00 | 0.00 | 45 | 994.9 |
| 20260905120052 | 79 | 21 | 1.0 | 2.0 | 0.00 | 0.00 | 0.00 | 47 | 994.9 |
| 20260905115350 | 76 | 156 | 2.0 | 3.0 | 0.00 | 0.00 | 0.00 | 48 | 994.9 |
| 20260905114649 | 76 | 1 | 1.0 | 1.0 | 0.00 | 0.00 | 0.00 | 49 | 994.7 |
| 20260905113947 | 74 | 275 | 3.0 | 6.0 | 0.00 | 0.00 | 0.00 | 49 | 994.7 |
| 20260905113255 | 73 | 14 | 2.0 | 3.0 | 0.00 | 0.00 | 0.00 | 49 | 994.8 |
| 20260905112553 | 73 | 16 | 2.0 | 5.0 | 0.00 | 0.00 | 0.00 | 49 | 994.5 |
| 20260905111851 | 73 | 357 | 5.0 | 8.0 | 0.00 | 0.00 | 0.00 | 50 | 994.8 |
| 20260905111148 | 72 | 24 | 2.0 | 5.0 | 0.00 | 0.00 | 0.00 | 51 | 994.8 |
| 20260905110447 | 69 | 270 | 0.0 | 0.0 | 0.00 | 0.00 | 0.00 | 57 | 994.7 |
| 20260905105757 | 69 | 270 | 0.0 | 0.0 | 0.00 | 0.00 | 0.00 | 57 | 994.7 |
| 20260905105054 | 68 | 288 | 3.0 | 6.0 | 0.00 | 0.00 | 0.00 | 56 | 994.6 |
| 20260905104352 | 66 | 341 | 1.0 | 3.0 | 0.00 | 0.00 | 0.00 | 60 | 994.7 |
| 20260905103651 | 64 | 290 | 2.0 | 3.0 | 0.00 | 0.00 | 0.00 | 64 | 994.5 |
| 20260905102948 | 62 | 275 | 1.0 | 0.0 | 0.00 | 0.00 | 0.00 | 64 | 994.4 |
| 20260905102247 | 61 | 249 | 3.0 | 3.0 | 0.00 | 0.00 | 0.00 | 65 | 994.4 |
| 20260905101555 | 61 | 263 | 1.0 | 6.0 | 0.00 | 0.00 | 0.00 | 66 | 994.4 |
| 20260905100853 | 60 | 275 | 5.0 | 3.0 | 0.00 | 0.00 | 0.00 | 66 | 994.2 |
| 20260905100150 | 61 | 309 | 1.0 | 3.0 | 0.00 | 0.00 | 0.00 | 66 | 994.3 |